Weather History for Akron Canton, OH

Change the Weather History Date:

Saturday, October 15, 2011

  Actual Average Record
Temperature  
Mean Temperature 52 °F 52 °F  
Max Temperature 58 °F 61 °F 85 °F (1897)
Min Temperature 45 °F 43 °F 29 °F (1937)
Degree Days  
Heating Degree Days 13 13  
Month to date heating degree days 104 165  
Since 1 July heating degree days 202 304  
Cooling Degree Days 0 0  
Month to date cooling degree days 1 3  
Year to date cooling degree days 911 649  
Growing Degree Days 2 (Base 50)    
Moisture  
Dew Point 36 °F    
Average Humidity 54    
Maximum Humidity 71    
Minimum Humidity 36    
Precipitation  
Precipitation 0.10 in 0.09 in 2.57 in (1954)
Month to date precipitation 2.01 1.38  
Year to date precipitation 45.76 32.03  
Snow  
Snow 0.00 in 0.10 in - ()
Month to date snowfall 0.0 0.1  
Since 1 July snowfall 0.0 0.1  
Since 1 September snowfall 0.0 0.1  
Snow Depth 0.00 in    
Sea Level Pressure  
Sea Level Pressure 29.70 in    
Wind  
Wind Speed 16 mph (West)    
Max Wind Speed 31 mph    
Max Gust Speed 45 mph    
Visibility 10 miles    
Events Rain    
T = Trace of Precipitation, MM = Missing Value Source: NWS Daily Summary

Daily Weather History Graph

Daily Weather History Graph

Search for Another Location

Airport:

Trip Planner

Search our weather history database for the weather conditions in past years. The results will help you decide how hot, cold, wet, or windy it might be!

Date:

Astronomy

Oct. 15, 2011 Rise Set
Actual Time 7:36 AM EDT 6:45 PM EDT
Civil Twilight 7:09 AM EDT 7:13 PM EDT
Nautical Twilight 6:37 AM EDT 7:45 PM EDT
Astronomical Twilight 6:05 AM EDT 8:16 PM EDT
Moon 8:39 PM EDT (10/15) 11:01 AM EDT (10/15)
Length of Visible Light 12h 04m
Length of Day
11h 08m
Waning Gibbous, 89% of the Moon is Illuminated
Oct 15
Waning Gibbous
Oct 19
Last Quarter
Oct 26
New
Nov 2
First Quarter
Nov 10
Full

Hourly Weather History & Observations

Time (EDT) Temp. Windchill Dew Point Humidity Pressure Visibility Wind Dir Wind Speed Gust Speed Precip Events Conditions
12:51 AM 46.0 °F 42.5 °F 39.9 °F 79% 29.60 in 10.0 mi SW 6.9 mph - 0.00 in   Mostly Cloudy
1:51 AM 50.0 °F - 39.9 °F 68% 29.60 in 10.0 mi WSW 12.7 mph - N/A   Overcast
2:51 AM 50.0 °F - 39.9 °F 68% 29.62 in 10.0 mi West 10.4 mph - 0.00 in   Overcast
3:51 AM 50.0 °F - 41.0 °F 71% 29.62 in 10.0 mi WSW 11.5 mph - N/A   Overcast
4:51 AM 48.0 °F - 42.1 °F 80% 29.62 in 5.0 mi West 10.4 mph 21.9 mph 0.02 in Rain Rain
5:51 AM 46.9 °F - 42.1 °F 83% 29.62 in 10.0 mi WSW 11.5 mph 17.3 mph 0.08 in   Overcast
6:51 AM 48.0 °F - 39.9 °F 74% 29.62 in 10.0 mi WSW 17.3 mph 23.0 mph N/A   Overcast
7:51 AM 48.0 °F - 39.0 °F 71% 29.62 in 10.0 mi WSW 17.3 mph 26.5 mph N/A   Overcast
8:51 AM 48.2 °F - 39.2 °F 71% 29.64 in 10.0 mi WSW 17.3 mph 23.0 mph N/A   Overcast
9:51 AM 48.9 °F - 39.0 °F 69% 29.66 in 10.0 mi WSW 21.9 mph 33.4 mph N/A   Overcast
10:51 AM 50.0 °F - 37.9 °F 63% 29.67 in 10.0 mi WSW 23.0 mph 29.9 mph N/A   Overcast
11:51 AM 52.0 °F - 37.9 °F 59% 29.69 in 10.0 mi West 23.0 mph 32.2 mph N/A   Overcast
12:51 PM 53.1 °F - 36.0 °F 52% 29.69 in 10.0 mi West 27.6 mph 35.7 mph N/A   Overcast
1:51 PM 54.0 °F - 36.0 °F 51% 29.69 in 10.0 mi West 20.7 mph 32.2 mph N/A   Mostly Cloudy
2:51 PM 55.0 °F - 33.1 °F 43% 29.70 in 10.0 mi West 25.3 mph 39.1 mph N/A   Scattered Clouds
3:51 PM 57.2 °F - 33.8 °F 41% 29.70 in 10.0 mi West 19.6 mph 33.4 mph N/A   Scattered Clouds
4:51 PM 57.0 °F - 33.1 °F 40% 29.73 in 10.0 mi West 26.5 mph 35.7 mph N/A   Scattered Clouds
5:51 PM 57.0 °F - 30.9 °F 37% 29.74 in 10.0 mi West 18.4 mph 29.9 mph N/A   Partly Cloudy
6:51 PM 55.9 °F - 30.0 °F 37% 29.77 in 10.0 mi West 17.3 mph 23.0 mph N/A   Partly Cloudy
7:51 PM 54.0 °F - 30.9 °F 41% 29.81 in 10.0 mi West 11.5 mph 20.7 mph N/A   Clear
8:51 PM 53.1 °F - 30.9 °F 43% 29.83 in 10.0 mi West 11.5 mph - N/A   Partly Cloudy
9:51 PM 52.0 °F - 33.1 °F 49% 29.86 in 10.0 mi West 10.4 mph - N/A   Partly Cloudy
10:51 PM 51.1 °F - 33.1 °F 50% 29.87 in 10.0 mi West 11.5 mph - N/A   Scattered Clouds
11:51 PM 50.0 °F - 34.0 °F 54% 29.89 in 10.0 mi West 8.1 mph - N/A   Scattered Clouds